Powrót do katalogu

FREGAT DEB

LostUNKNOWN
NORAD 46525·DEBRIS·🇷🇺 Russia

Wystrzelony Jul 18, 2011 z Baikonur Cosmodrome

Loading…

Następne Przeloty (najbliższe 24 godziny)

TLE

NieaktualneSource: Space-Track

Epoka: Oct 3, 2020, 06:05 UTC

1 46525U 11037MD  20277.25397574  .00008472  00000-0  82692+0 0  9991
2 46525  51.6934 211.9934 1244096 199.3180 155.6021  9.30244489  3532

Śledź FREGAT DEB w czasie rzeczywistym z AllMySat

Download on the App Store